Other Public Products
Issued by NWS Grand Forks, ND

Home | Current Version | Previous Version | Graphics & Text | Print | Product List | Glossary On
Versions: 1 2 3 4 5 6 7 8 9 10 11 12 13 14 15 16 17 18 19 20 21 22 23 24 25 26 27 28 29 30 31 32 33 34 35 36 37 38 39 40 41 42 43 44 45 46 47 48 49 50
897
FPUS83 KFGF 240610
OPUFGF
PRAIRIE TO PINES WEATHER ROUNDUP
NATIONAL WEATHER SERVICE EASTERN NORTH DAKOTA/GRAND FORKS ND
100 AM CDT WED MAY 24 2017

 **SATELLITE DATA USED TO AUGMENT SKY COVER AT AUTOMATED STATIONS**
 *****  WEATHER ACROSS EASTERN NORTH DAKOTA  *****

CITY           SKY/WX    TMP DP  RH WIND       PRES   REMARKS
GRAND FORKS    MOCLDY    47  42  83 W5        29.91F
6HR MIN TEMP:  43; 6HR MAX TEMP:  63;

GRAND FORKS AF MOCLDY    44  42  90 W3        29.91F
GRAND CITY NWS NOT AVBL
BUXTON         NOT AVBL
DEVILS LAKE    FAIR      48  42  80 CALM      29.93F
6HR MIN TEMP:  45; 6HR MAX TEMP:  63;

FARGO          FAIR      43  41  93 NE5       29.90F
6HR MIN TEMP:  43; 6HR MAX TEMP:  58;

WAHPETON ARPT  FAIR      45  41  87 N7        29.89F
$$

 *****  WEATHER ACROSS CENTRAL AND WESTERN NORTH DAKOTA  *****

CITY           SKY/WX    TMP DP  RH WIND       PRES   REMARKS
JAMESTOWN      FAIR      39  37  92 W3        29.92F
6HR MIN TEMP:  39; 6HR MAX TEMP:  59;

BISMARCK       FAIR      41  36  82 SE5       29.95F
6HR MIN TEMP:  41; 6HR MAX TEMP:  65;

MINOT          FAIR      54  37  52 SE8       29.88F
6HR MIN TEMP:  53; 6HR MAX TEMP:  68;

MINOT AFB      FAIR      52  36  54 S9        29.87F
6HR MIN TEMP:  51; 6HR MAX TEMP:  68;

GARRISON         N/A     50  37  61 S9        29.90F
6HR MIN TEMP:  48; 6HR MAX TEMP:  65;

WILLISTON      FAIR      58  36  43 S13       29.83F
6HR MIN TEMP:  58; 6HR MAX TEMP:  72;

DICKINSON      FAIR      42  33  70 SE12      29.88F
6HR MIN TEMP:  41; 6HR MAX TEMP:  63;

HETTINGER      FAIR      47  34  60 SE8       29.93F
6HR MIN TEMP:  43; 6HR MAX TEMP:  64;

$$

 *****  OTHER OBSERVATIONS NORTHEAST NORTH DAKOTA  *****

CITY           SKY/WX    TMP DP  RH WIND       PRES   REMARKS
WALHALLA       NOT AVBL
LANGDON        FAIR      43  41  93 S7        29.92S
CAVALIER       FAIR      52  41  66 SW7       29.91S
GRAFTON        FAIR      46  45  93 W5        29.93F
CANDO          NOT AVBL
FORT TOTTEN      N/A     47  38  71 SE3       29.95S
ROLLA          FAIR      45  30  57 S7        29.91F
RUGBY          NOT AVBL
 ***** THE ABOVE OBSERVATIONS ARE NON NWS ARE NOT QUALITY
        CONTROLLED AND MAY MIS-REPORT RAIN FOR SNOW...
$$

 *****  OTHER OBSERVATIONS SOUTHEAST NORTH DAKOTA *****

CITY           SKY/WX    TMP DP  RH WIND       PRES   REMARKS
COOPERSTOWN    FAIR      41  39  93 CALM      29.93F
VALLEY CITY    FAIR      43  43 100 N5        29.93F
OAKES          NOT AVBL
GWINNER        CLEAR     45  43  93 MISG      29.90F
SHEYENNE NWR     N/A     45  43  91 N2        29.95S
BUFFALO        NOT AVBL
WYNDMERE         N/A     43  39  87 N3          N/A
 ***** THE ABOVE OBSERVATIONS ARE NON NWS ARE NOT QUALITY
       CONTROLLED AND MAY MIS-REPORT RAIN FOR SNOW...
$$

  *****  WEATHER ACROSS NORTHERN MINNESOTA  *****

CITY           SKY/WX    TMP DP  RH WIND       PRES   REMARKS
FLAG ISLAND    FAIR      50  46  87 CALM      29.90F
WARROAD        FAIR      43  39  87 CALM      29.92F
ROSEAU         FAIR      43  39  87 CALM      29.92S
HALLOCK        FAIR      45  39  81 S3        29.91F
THF RVR FALLS  NOT AVBL
HALSTAD          N/A     42  41  98 NE5         N/A
FOSSTON        FAIR      39  37  93 CALM      29.91F
BAUDETTE       FAIR      37  36  96 CALM      29.91F FOG
6HR MIN TEMP:  38; 6HR MAX TEMP:  60;

WASKISH        FOG       37  36  93 CALM      29.91F VSB 3/4
CROOKSTON      FAIR      45  43  93 CALM      29.91F
$$
  *****  WEATHER ACROSS CENTRAL AND WEST MINNESOTA  *****

CITY           SKY/WX    TMP DP  RH WIND       PRES   REMARKS
BEMIDJI        FAIR      34  33  98 NW5       29.90F
PARK RAPIDS    FAIR      48  41  76 NE5       29.88F
6HR MIN TEMP:  48; 6HR MAX TEMP:  54;

WADENA         CLOUDY    48  43  81 NE6       29.87F
DETROIT LAKES  FAIR      46  43  87 NE6       29.90F
MOORHEAD       FAIR      45  41  87 NE7       29.91F
FERGUS FALLS   FAIR      45  45 100 CALM      29.88F
ELBOW LAKE     FAIR      46  44  93 N5        29.88F
6HR MIN TEMP:  46; 6HR MAX TEMP:  56;

MORRIS MN      FAIR      45  45 100 N5        29.86F
STAPLES        CLOUDY    48  45  87 N3        29.88F
WHEATON        FAIR      43  41  93 CALM      29.90F
$$
  *****  WEATHER ELSEWHERE ACROSS MINNESOTA  *****

CITY           SKY/WX    TMP DP  RH WIND       PRES   REMARKS
DULUTH         CLOUDY    47  45  93 NE5       29.86F
6HR MIN TEMP:  47; 6HR MAX TEMP:  49; 6HR PCP:  0.01;

INTRNTL FALLS  FAIR      36  33  89 NW3       29.90F
6HR MIN TEMP:  34; 6HR MAX TEMP:  56;

ELY            FAIR      46  39  76 CALM      29.88F
CLOQUET        MOCLDY    45  43  93 CALM      29.87F
BRAINERD       CLOUDY    49  48  97 CALM      29.88F
6HR MIN TEMP:  49; 6HR MAX TEMP:  54; 6HR PCP:  0.01;

HIBBING        CLOUDY    48  42  80 N3        29.88S
6HR MIN TEMP:  47; 6HR MAX TEMP:  52;

ALEXANDRIA     CLOUDY    49  45  86 NE7       29.88F
6HR MIN TEMP:  48; 6HR MAX TEMP:  55;

SAINT CLOUD    CLOUDY    50  46  86 NE7       29.85F
6HR MIN TEMP:  50; 6HR MAX TEMP:  57;

MINNEAPOLIS    FAIR      51  44  77 N10       29.81F
6HR MIN TEMP:  51; 6HR MAX TEMP:  59;

$$

  *****  WEATHER ACROSS SOUTH DAKOTA  *****

CITY           SKY/WX    TMP DP  RH WIND       PRES   REMARKS
SIOUX FALLS    MOCLDY    47  45  93 N8        29.86F
6HR MIN TEMP:  47; 6HR MAX TEMP:  55;

BROOKINGS      FAIR      45  43  93 N5        29.87F
WATERTOWN      FAIR      39  38  96 N7        29.88F
6HR MIN TEMP:  39; 6HR MAX TEMP:  53;

HURON          FAIR      38  38 100 W6        29.90F
6HR MIN TEMP:  37; 6HR MAX TEMP:  53;

SISSETON         N/A     42  41  96 NW7       29.88F
ABERDEEN       FAIR      41  37  86 NW7       29.91F
6HR MIN TEMP:  39; 6HR MAX TEMP:  58;

MITCHELL       FAIR      45  42  89 NW8       29.91F
PIERRE         FAIR      40  35  83 N3        29.93F
6HR MIN TEMP:  39; 6HR MAX TEMP:  58;

MOBRIDGE       FAIR      38  33  82 CALM      29.92F
RAPID CITY     FAIR      43  34  70 S6        29.96F
6HR MIN TEMP:  37; 6HR MAX TEMP:  63;

$$

  *****  SOME WEATHER IN NEARBY STATES *****

CITY           SKY/WX    TMP DP  RH WIND       PRES   REMARKS
GLASGOW MT     FAIR      57  35  43 SE13      29.70F
6HR MIN TEMP:  57; 6HR MAX TEMP:  72;

GREAT FALLS MT FAIR      66  38  35 SW14      29.63F
6HR MIN TEMP:  60; 6HR MAX TEMP:  80;

CHEYENNE WY    FAIR      39  33  79 W9        30.06F
6HR MIN TEMP:  39; 6HR MAX TEMP:  56;

SCOTTSBLUFF NE FAIR      44  37  76 SE3       30.00F
6HR MIN TEMP:  43; 6HR MAX TEMP:  64;

OMAHA NE       MOCLDY    51  46  83 NW13      29.81F
6HR MIN TEMP:  49; 6HR MAX TEMP:  55; 6HR PCP: TRACE;

DES MOINES IA  MOCLDY    51  47  86 NW7       29.72F
6HR MIN TEMP:  51; 6HR MAX TEMP:  59; 6HR PCP: TRACE;

DAVENPORT IA   FAIR      51  49  92 W3        29.67F
6HR MIN TEMP:  51; 6HR MAX TEMP:  58;

CHICAGO IL     LGT RAIN  55  52  89 NE8       29.66F FOG
6HR MIN TEMP:  55; 6HR MAX TEMP:  58; 6HR PCP:  0.13;

EAU CLAIRE WI  CLOUDY    50  45  83 N8        29.76F
6HR MIN TEMP:  50; 6HR MAX TEMP:  58;

LA CROSSE WI   CLOUDY    52  48  86 N7        29.73F
6HR MIN TEMP:  52; 6HR MAX TEMP:  56; 6HR PCP:  0.09;

$$

  *****  SOME NATIONAL WEATHER *****

CITY           SKY/WX    TMP DP  RH WIND       PRES   REMARKS
LA GUARDIA NY  CLOUDY    60  51  72 NE6       29.74F
6HR MIN TEMP:  60; 6HR MAX TEMP:  67;



USA.gov is the U.S. government's official web portal to all federal, state and local government web resources and services.